Regional Weather Roundup
Issued by NWS Cleveland, OH

Home | Current Version | Previous Version | Graphics & Text | Print | Product List | Glossary On
Versions: 1 2 3 4 5 6 7 8 9 10 11 12 13 14 15 16 17 18 19 20 21 22 23 24 25 26 27 28 29 30 31 32 33 34 35 36 37 38 39 40 41 42 43 44 45 46 47 48 49 50
000
ASUS41 KCLE 230300
RWRCLE
OHIO REGIONAL WEATHER ROUNDUP
NATIONAL WEATHER SERVICE WILMINGTON, OH
1100 PM EDT FRI SEP 22 2017

NOTE: "FAIR" INDICATES FEW OR NO CLOUDS BELOW 12,000 FEET WITH NO
SIGNIFICANT WEATHER AND/OR OBSTRUCTIONS TO VISIBILITY.

OHZ001>008-015>018-024>027-034-035-043-044-230400-
   NORTHWEST OHIO

CITY           SKY/WX    TMP DP  RH WIND       PRES   REMARKS
DEFIANCE       FAIR      73  67  81 E3        30.08R
FINDLAY        FAIR      73  62  68 E6        30.08R
TOLEDO EXPRESS FAIR      70  68  93 E3        30.08R
TOLEDO EXEC    FAIR      69  65  86 E5        30.09R
LIMA           FAIR      70  66  87 E5        30.09R
$$

OHZ009>014-019>023-028>033-038-089-230400-
   NORTHEAST OHIO

CITY           SKY/WX    TMP DP  RH WIND       PRES   REMARKS
CLE-HOPKINS    FAIR      72  61  68 CALM      30.11R
CLE-LAKEFRONT  FAIR      75  59  57 CALM      30.08R
CUY CO. ARPT   CLEAR     66  57  72 CALM      30.10S
LORAIN-ELYRIA  FAIR      63  57  81 CALM      30.10R
ASHTABULA      FAIR      59  59 100 CALM      30.12R
AKRON-CANTON   MOCLDY    71  56  58 NE6       30.11S
WOOSTER        NOT AVBL
MANSFIELD      FAIR      70  63  78 CALM      30.12R
YOUNGSTOWN     MOCLDY    64  62  93 NE3       30.11S
$$

OHZ042-051>053-060>062-070>072-077>081-230400-
  SOUTHWEST OHIO

CITY           SKY/WX    TMP DP  RH WIND       PRES   REMARKS
CINC-COVINGTON FAIR      74  68  81 CALM      30.07S
CINC-LUNKEN    FAIR      68  68 100 CALM      30.07R
HAMILTON       FAIR      70  68  93 CALM      30.07S
DAYTON         NOT AVBL
WRIGHT-PAT AFB NOT AVBL
DAYTON GENERAL FAIR      74  64  71 CALM      30.07S
WILMINGTON     FAIR      67  66  97 CALM      30.09R
$$

OHZ036-037-039>041-045>050-054>059-063>069-073>076-082>088-230400-
  CENTRAL AND SOUTHEAST OHIO

CITY           SKY/WX    TMP DP  RH WIND       PRES   REMARKS
COLUMBUS       MOCLDY    76  67  73 CALM      30.07S
OSU AIRPORT    FAIR      73  66  78 CALM      30.08S
BOLTON FIELD   NOT AVBL
RICKENBACK AFB NOT AVBL
NEWARK         FAIR      65  64  97 CALM      30.08S FOG
MARION         FAIR      70  61  73 CALM      30.10R
LANCASTER      FAIR      64  63  96 CALM      30.09R
ZANESVILLE     FAIR      70  66  87 S5        30.09R
NEW PHILLY     FAIR      66  64  93 CALM      30.10S
$$



USA.gov is the U.S. government's official web portal to all federal, state and local government web resources and services.